SL-16 DEB, 22645

Orbit data source: Space-Track

SL-16 DEB, 22645 is space debris in LEO originally from a launch on Fri, 26 Mar 1993 UTC launched from the Tyuratam Missile And Space Complex (TTMTR). Debris objects in space refer to the collection of defunct objects orbiting the Earth. Examples of debris include non-operational satellites, rocket bodies, and fragments generated from explosions, collisions, or faulty payload assembly.

Loading next visibility...
Identifier
22645, 1993-016AF
Orbit
LEO
Country
Flag of CISCIS
Related business
Manufacturer
Unknown
Mission
Spacecraft
Bus & Motor
Unknown
Mass
Unknown
Launch date (UTC)
1993-03-26 (32 years ago)
Launch vehicle
Unknown
Launch site
Tyuratam Missile And Space Complex (TTMTR)
Object type
Payload
Rocket body
Debris
Shape & HBR
Unknown
Radar Cross Section
Small (<0.1 m²)

Expand to show TLE details & history
Last TLE update: 23 hours ago

TLE from 23 hours ago
0 SL-16 DEB
1 22645U 93016AF  25258.14878026  .00001013  00000-0  81816-3 0  9998
2 22645  70.9864 177.3486 0168850  17.9089 342.7869 13.86223311634218
Epoch: 2025-09-15T03:34Z
TLE epoch observation values (Epoch: 2025-09-15T03:34:14.614Z)
Latitude
0.00001°
Longitude
129.43013°
Altitude
826.371 km
Speed
7.5 km/s
True Right ascension
11h 49m 23s
True Declination
0° 00' 00"
Sunlit
Object was in daylight at epoch
Visualization orbit readout
Latitude
Unknown
Longitude
Unknown
Altitude
Unknown
Speed
Unknown
Apparent Right ascension
Unknown
Apparent Declination
Unknown
Sunlit
N/A
Visualization observer readout
Local Sidereal Time
19:38:16
Azimuth
Unknown
Elevation
Unknown
Doppler factor
Unknown
Orbital elements
Apogee altitude
1,063.414 km
Perigee altitude
816.286 km
Semi-major axis
7,317.987 km
Eccentricity
0.01689
Inclination
70.9864°
RAAN
177.3486°
Arg. of periapsis
17.9089°
True anomaly
342.20256°
Mean anomaly
342.7869°
Eccentric anomaly
342.49592°
Mean motion
3.46702 °/min
Orbital period
103.84 mins
BSTAR
0.00081816
Loading maneuver chart data...
Computing Atmospheric mass density...
Loading historical data...
Loading historical data...
Loading historical data...
Loading historical data...
Loading historical data...
Loading historical data...
Loading historical data...

Documentation

Showing up to 5 results
|